Шаим

Россия / Ханты-Мансийский автономный округ - Югра     60°20′17″N   64°08′41″E
темп.,
°C
ветер,
м/с
пор.,
м/с
влажн.,
%
обл.,
%
осадки,
мм/ч
давл.,
гПа
погр.,
м
23 июня, ср
ср2323:00+14с3861100 0.0 1016377
02:00+10ссв22725 0.0 101723
05:00+9ссв26825 0.0 1018208
08:00+14с466174 0.0 1018941
11:00+17с464314 0.0 10181888
14:00+19с463444 0.0 10182289
17:00+20ссз56325 0.0 10172356
20:00+17с36410 0.0 1017262
24 июня, чт
чт2423:00+12св22515 0.0 101812
02:00+9ю11604 0.0 101810
05:00+10зюз116078 0.0 101812
08:00+16юз1242100 0.0 1017391
11:00+16зюз2448100 0.0 1016275
14:00+21зюз2434100 0.0 10151180
17:00+18юз2350100 0.0 1014143
20:00+17юз235963 0.0 101395
25 июня, пт
пт2523:00+13юз117110 0.0 101310
02:00+13ю006974 0.0 101310
05:00+13всв017410 0.0 101310
08:00+18всв225714 0.0 1012412
11:00+21в2246100 0.0 1012968
14:00+24в1139100 0.0 10111380
17:00+22с2148100 0.0 1010301
20:00+19св2256100 0.0 100939
26 июня, сб
сб2623:00+18юв41055100 0.0 1009316
02:00+17юв41150100 0.0 1009354
05:00+16вюв3855100 0.0 1009252
08:00+14в51073100 0.4 1010380
11:00+14вюв51087100 2.3 1012452
14:00+15вюв4578100 0.2 1013471
17:00+19в34580 0.2 1013890
20:00+20зсз11604 0.0 101323
27 июня, вс
вс2723:00+14ссз227714 0.0 101339
02:00+13св347962 0.0 101477
05:00+14св367589 0.0 1015220
08:00+16всв456376 0.0 1015391
11:00+17св3462100 0.0 1016473
14:00+20всв335597 0.0 1016836
17:00+18ссв2464100 0.0 1016162
20:00+15ссв2374100 0.0 1017138